This is the latest recevied weather packets stored in our database for station/object NR0A-4. If no packets are shown the sender has not sent any weather packets the latest 1 day(s).
| Time | Temp. | Humidity | Pressure | Rain* | Wind** | Luminosity | Snow |
|---|---|---|---|---|---|---|---|
| 1777996204 | 8.89° C | 45% | 1013.9 hPa | 0 mm | 0.89 m/s, 9° | 308 W/m² | - |
| 1777995904 | 8.89° C | 46% | 1013.8 hPa | 0 mm | 2.24 m/s, 271° | 255 W/m² | - |
| 1777995605 | 9.44° C | 45% | 1013.7 hPa | 0 mm | 2.24 m/s, 288° | 265 W/m² | - |
| 1777995305 | 8.89° C | 47% | 1013.7 hPa | 0 mm | 0.89 m/s, 318° | 269 W/m² | - |
| 1777995004 | 8.89° C | 47% | 1013.7 hPa | 0 mm | 0.89 m/s, 314° | 262 W/m² | - |
| 1777994704 | 8.89° C | 48% | 1013.7 hPa | 0 mm | 0.89 m/s, 347° | 265 W/m² | - |
| 1777994405 | 8.89° C | 49% | 1013.8 hPa | 0 mm | 1.34 m/s, 351° | 323 W/m² | - |
| 1777994104 | 8.33° C | 52% | 1013.7 hPa | 0 mm | 0.89 m/s, 282° | 299 W/m² | - |
| 1777993805 | 8.33° C | 53% | 1013.7 hPa | 0 mm | 0.89 m/s, 283° | 323 W/m² | - |
| 1777993505 | 7.78° C | 52% | 1013.6 hPa | 0 mm | 0.89 m/s, 287° | 269 W/m² | - |
| 1777993204 | 7.78° C | 55% | 1013.6 hPa | 0 mm | 0.89 m/s, 272° | 223 W/m² | - |
| 1777992905 | 7.78° C | 56% | 1013.6 hPa | 0 mm | 0.45 m/s, 267° | 214 W/m² | - |
| 1777992604 | 7.78° C | 57% | 1013.5 hPa | 0 mm | 1.34 m/s, 288° | 213 W/m² | - |
| 1777992304 | 7.22° C | 58% | 1013.4 hPa | 0 mm | 0.89 m/s, 269° | 169 W/m² | - |
| 1777992005 | 7.22° C | 59% | 1013.4 hPa | 0 mm | 0 m/s | 163 W/m² | - |
| 1777991705 | 7.22° C | 57% | 1013.4 hPa | 0 mm | 0.45 m/s, 310° | 132 W/m² | - |
| 1777991404 | 7.22° C | 58% | 1013.3 hPa | 0 mm | 0.89 m/s, 256° | 116 W/m² | - |
| 1777991104 | 7.22° C | 60% | 1013.3 hPa | 0 mm | 0.45 m/s, 273° | 128 W/m² | - |
| 1777990805 | 7.22° C | 59% | 1013.3 hPa | 0 mm | 0.89 m/s, 301° | 111 W/m² | - |
| 1777990504 | 7.22° C | 60% | 1013.2 hPa | 0 mm | 0 m/s | 105 W/m² | - |
| 1777990204 | 7.22° C | 60% | 1013.1 hPa | 0 mm | 0 m/s | 100 W/m² | - |
| 1777989904 | 7.22° C | 60% | 1013 hPa | 0 mm | 0.45 m/s, 305° | 98 W/m² | - |
| 1777989604 | 7.22° C | 61% | 1013 hPa | 0 mm | 0 m/s | 116 W/m² | - |
| 1777989304 | 7.22° C | 59% | 1012.8 hPa | 0 mm | 0.45 m/s, 268° | 102 W/m² | - |
| 1777989005 | 7.22° C | 62% | 1012.8 hPa | 0 mm | 0.89 m/s, 308° | 113 W/m² | - |
* Rain latest hour (hover to see other rain measurements)
** Current wind speed in m/s (hover to see current wind gust speed)